datetime,pool elevation
2003-01-01,7682.4
2003-01-02,7682.4
2003-01-03,7682.4
2003-01-04,7682.4
2003-01-05,7682.4
2003-01-06,7682.4
2003-01-07,7682.4
2003-01-08,7682.41667
2003-01-09,7682.43333
2003-01-10,7682.45
2003-01-11,7682.46667
2003-01-12,7682.48333
2003-01-13,7682.5
2003-01-14,7682.5
2003-01-15,7682.5
2003-01-16,7682.5
2003-01-17,7682.5
2003-01-18,7682.5
2003-01-19,7682.5
2003-01-20,7682.5
2003-01-21,7682.5
2003-01-22,7682.5
2003-01-23,7682.5
2003-01-24,7682.5
2003-01-25,7682.5
2003-01-26,7682.5
2003-01-27,7682.5
2003-01-28,7682.5
2003-01-29,7682.5
2003-01-30,7682.5
2003-01-31,7682.5
2003-02-01,7682.5
2003-02-02,7682.6
2003-02-03,7682.7
2003-02-04,7682.72
2003-02-05,7682.74
2003-02-06,7682.76
2003-02-07,7682.78
2003-02-08,7682.8
2003-02-09,7682.80909
2003-02-10,7682.81818
2003-02-11,7682.82727
2003-02-12,7682.83636
2003-02-13,7682.84545
2003-02-14,7682.85455
2003-02-15,7682.86364
2003-02-16,7682.87273
2003-02-17,7682.88182
2003-02-18,7682.89091
2003-02-19,7682.9
2003-02-20,7682.92
2003-02-21,7682.94
2003-02-22,7682.96
2003-02-23,7682.98
2003-02-24,7683.0
2003-02-25,7683.0
2003-02-26,7683.0
2003-02-27,7683.0
2003-02-28,7683.0
2003-03-01,7683.0
2003-03-02,7683.0
2003-03-03,7683.0
2003-03-04,7683.025
2003-03-05,7683.05
2003-03-06,7683.075
2003-03-07,7683.1
2003-03-08,7683.1
2003-03-09,7683.1
2003-03-10,7683.1
2003-03-11,7683.11429
2003-03-12,7683.12857
2003-03-13,7683.14286
2003-03-14,7683.15714
2003-03-15,7683.17143
2003-03-16,7683.18571
2003-03-17,7683.2
2003-03-18,7683.24444
2003-03-19,7683.28889
2003-03-20,7683.33333
2003-03-21,7683.37778
2003-03-22,7683.42222
2003-03-23,7683.46667
2003-03-24,7683.51111
2003-03-25,7683.55556
2003-03-26,7683.6
2003-03-27,7683.64
2003-03-28,7683.68
2003-03-29,7683.72
2003-03-30,7683.76
2003-03-31,7683.8
2003-04-01,7683.8
2003-04-02,7683.8
2003-04-03,7683.8
2003-04-04,7683.8
2003-04-05,7683.8
2003-04-06,7683.8
2003-04-07,7683.8
2003-04-08,7683.925
2003-04-09,7684.05
2003-04-10,7684.175
2003-04-11,7684.3
2003-04-12,7684.6
2003-04-13,7684.9
2003-04-14,7685.1
2003-04-15,7685.1
2003-04-16,7685.1
2003-04-17,7685.1
2003-04-18,7685.1
2003-04-19,7685.05
2003-04-20,7685.0
2003-04-21,7684.95
2003-04-22,7684.9
2003-04-23,7685.0
2003-04-24,7685.1
2003-04-25,7685.2
2003-04-26,7685.3
2003-04-27,7685.4
2003-04-28,7685.5
2003-04-29,7685.55
2003-04-30,7685.6
2003-05-01,7685.6
2003-05-02,7685.6
2003-05-03,7685.53333
2003-05-04,7685.46667
2003-05-05,7685.4
2003-05-06,7685.36667
2003-05-07,7685.33333
2003-05-08,7685.3
2003-05-09,7685.325
2003-05-10,7685.35
2003-05-11,7685.375
2003-05-12,7685.4
2003-05-13,7685.55
2003-05-14,7685.7
2003-05-15,7686.3
2003-05-16,7686.9
2003-05-17,7687.5
2003-05-18,7688.1
2003-05-19,7688.25
2003-05-20,7688.4
2003-05-21,7688.7
2003-05-22,7689.0
2003-05-23,7690.2
2003-05-24,7690.7
2003-05-25,7690.8
2003-05-26,7690.9
2003-05-27,7690.95
2003-05-28,7691.0
2003-05-29,7691.0
2003-05-30,7691.0
2003-05-31,7691.0
2003-06-01,7690.8
2003-06-02,7690.5
2003-06-03,7690.6
2003-06-04,7690.7
2003-06-05,7690.8
2003-06-06,7690.9
2003-06-07,7690.86667
2003-06-08,7690.83333
2003-06-09,7690.8
2003-06-10,7690.8
2003-06-11,7690.8
2003-06-12,7690.8
2003-06-13,7690.8
2003-06-14,7690.7
2003-06-15,7690.6
2003-06-16,7690.5
2003-06-17,7690.45
2003-06-18,7690.4
2003-06-19,7690.35
2003-06-20,7690.3
2003-06-21,7690.3
2003-06-22,7690.3
2003-06-23,7690.3
2003-06-24,7690.35
2003-06-25,7690.4
2003-06-26,7690.45
2003-06-27,7690.5
2003-06-28,7690.43333
2003-06-29,7690.36667
2003-06-30,7690.3
2003-07-01,7690.3
2003-07-02,7690.25
2003-07-03,7690.2
2003-07-04,7690.175
2003-07-05,7690.15
2003-07-06,7690.125
2003-07-07,7690.1
2003-07-08,7690.075
2003-07-09,7690.05
2003-07-10,7690.025
2003-07-11,7690.0
2003-07-12,7689.76667
2003-07-13,7689.53333
2003-07-14,7689.3
2003-07-15,7689.03333
2003-07-16,7688.76667
2003-07-17,7688.5
2003-07-18,7688.08333
2003-07-19,7687.66667
2003-07-20,7687.25
2003-07-21,7686.83333
2003-07-22,7686.41667
2003-07-23,7686.0
2003-07-24,7685.54
2003-07-25,7685.08
2003-07-26,7684.62
2003-07-27,7684.16
2003-07-28,7683.7
2003-07-29,7683.3
2003-07-30,7682.9
2003-07-31,7682.5
2003-08-01,7682.1
2003-08-02,7681.725
2003-08-03,7681.35
2003-08-04,7680.975
2003-08-05,7680.6
2003-08-06,7680.2
2003-08-07,7679.8
2003-08-08,7679.55
2003-08-09,7679.3
2003-08-10,7679.05
2003-08-11,7678.8
2003-08-12,7678.6
2003-08-13,7678.4
2003-08-14,7678.2
2003-08-15,7678.0
2003-08-16,7677.9
2003-08-17,7677.8
2003-08-18,7677.7
2003-08-19,7677.7
2003-08-20,7677.7
2003-08-21,7677.68
2003-08-22,7677.66
2003-08-23,7677.64
2003-08-24,7677.62
2003-08-25,7677.6
2003-08-26,7677.55
2003-08-27,7677.5
2003-08-28,7677.45
2003-08-29,7677.4
2003-08-30,7677.35
2003-08-31,7677.3
2003-09-01,7677.3
2003-09-02,7677.3
2003-09-03,7677.26667
2003-09-04,7677.23333
2003-09-05,7677.2
2003-09-06,7677.16667
2003-09-07,7677.13333
2003-09-08,7677.1
2003-09-09,7677.1
2003-09-10,7677.1
2003-09-11,7677.1
2003-09-12,7677.1
2003-09-13,7677.1
2003-09-14,7677.1
2003-09-15,7677.1
2003-09-16,7677.07143
2003-09-17,7677.04286
2003-09-18,7677.01429
2003-09-19,7676.98571
2003-09-20,7676.95714
2003-09-21,7676.92857
2003-09-22,7676.9
2003-09-23,7676.9
2003-09-24,7676.9
2003-09-25,7676.9
2003-09-26,7676.875
2003-09-27,7676.85
2003-09-28,7676.825
2003-09-29,7676.8
2003-09-30,7676.8
2003-10-01,7676.8
2003-10-02,7676.8
2003-10-03,7676.8
2003-10-04,7676.8
2003-10-05,7676.8
2003-10-06,7676.8
2003-10-07,7676.8
2003-10-08,7676.8
2003-10-09,7676.8
2003-10-10,7676.8
2003-10-11,7676.8
2003-10-12,7676.8
2003-10-13,7676.8
2003-10-14,7676.8
2003-10-15,7676.76667
2003-10-16,7676.73333
2003-10-17,7676.7
2003-10-18,7676.66667
2003-10-19,7676.63333
2003-10-20,7676.6
2003-10-21,7676.575
2003-10-22,7676.55
2003-10-23,7676.525
2003-10-24,7676.5
2003-10-25,7676.5
2003-10-26,7676.5
2003-10-27,7676.5
2003-10-28,7676.5
2003-10-29,7676.5
2003-10-30,7676.5
2003-10-31,7676.5
2003-11-01,7676.5
2003-11-02,7676.5
2003-11-03,7676.5
2003-11-04,7676.5
2003-11-05,7676.5
2003-11-06,7676.5
2003-11-07,7676.5
2003-11-08,7676.5
2003-11-09,7676.5
2003-11-10,7676.5
2003-11-11,7676.525
2003-11-12,7676.55
2003-11-13,7676.575
2003-11-14,7676.6
2003-11-15,7676.625
2003-11-16,7676.65
2003-11-17,7676.675
2003-11-18,7676.7
2003-11-19,7676.75
2003-11-20,7676.8
2003-11-21,7676.825
2003-11-22,7676.85
2003-11-23,7676.875
2003-11-24,7676.9
2003-11-25,7676.91667
2003-11-26,7676.93333
2003-11-27,7676.95
2003-11-28,7676.96667
2003-11-29,7676.98333
2003-11-30,7677.0
2003-12-01,7677.0
2003-12-02,7677.1
2003-12-03,7677.1
2003-12-04,7677.1
2003-12-05,7677.14
2003-12-06,7677.18
2003-12-07,7677.22
2003-12-08,7677.26
2003-12-09,7677.3
2003-12-10,7677.31667
2003-12-11,7677.33333
2003-12-12,7677.35
2003-12-13,7677.36667
2003-12-14,7677.38333
2003-12-15,7677.4
2003-12-16,7677.42857
2003-12-17,7677.45714
2003-12-18,7677.48571
2003-12-19,7677.51429
2003-12-20,7677.54286
2003-12-21,7677.57143
2003-12-22,7677.6
2003-12-23,7677.61111
2003-12-24,7677.62222
2003-12-25,7677.63333
2003-12-26,7677.64444
2003-12-27,7677.65556
2003-12-28,7677.66667
2003-12-29,7677.67778
2003-12-30,7677.68889
2003-12-31,7677.7
2004-01-01,7677.7
2004-01-02,7677.71667
2004-01-03,7677.73333
2004-01-04,7677.75
2004-01-05,7677.76667
2004-01-06,7677.78333
2004-01-07,7677.8
2004-01-08,7677.84
2004-01-09,7677.88
2004-01-10,7677.92
2004-01-11,7677.96
2004-01-12,7678.0
2004-01-13,7678.03333
2004-01-14,7678.06667
2004-01-15,7678.1
2004-01-16,7678.13333
2004-01-17,7678.16667
2004-01-18,7678.2
2004-01-19,7678.23333
2004-01-20,7678.26667
2004-01-21,7678.3
2004-01-22,7678.36
2004-01-23,7678.42
2004-01-24,7678.48
2004-01-25,7678.54
2004-01-26,7678.6
2004-01-27,7678.64
2004-01-28,7678.68
2004-01-29,7678.72
2004-01-30,7678.76
2004-01-31,7678.8
2004-02-01,7678.8
2004-02-02,7679.1
2004-02-03,7679.15714
2004-02-04,7679.21429
2004-02-05,7679.27143
2004-02-06,7679.32857
2004-02-07,7679.38571
2004-02-08,7679.44286
2004-02-09,7679.5
2004-02-10,7679.5625
2004-02-11,7679.625
2004-02-12,7679.6875
2004-02-13,7679.75
2004-02-14,7679.8125
2004-02-15,7679.875
2004-02-16,7679.9375
2004-02-17,7680.0
2004-02-18,7680.04286
2004-02-19,7680.08571
2004-02-20,7680.12857
2004-02-21,7680.17143
2004-02-22,7680.21429
2004-02-23,7680.25714
2004-02-24,7680.3
2004-02-25,7680.34
2004-02-26,7680.38
2004-02-27,7680.42
2004-02-28,7680.46
2004-02-29,7680.5
2004-03-01,7680.5
2004-03-02,7680.5
2004-03-03,7680.5
2004-03-04,7680.5
2004-03-05,7680.5
2004-03-06,7680.5
2004-03-07,7680.5
2004-03-08,7680.5
2004-03-09,7680.52857
2004-03-10,7680.55714
2004-03-11,7680.58571
2004-03-12,7680.61429
2004-03-13,7680.64286
2004-03-14,7680.67143
2004-03-15,7680.7
2004-03-16,7680.83333
2004-03-17,7680.96667
2004-03-18,7681.1
2004-03-19,7681.23333
2004-03-20,7681.36667
2004-03-21,7681.5
2004-03-22,7681.63333
2004-03-23,7681.76667
2004-03-24,7681.9
2004-03-25,7682.08
2004-03-26,7682.26
2004-03-27,7682.44
2004-03-28,7682.62
2004-03-29,7682.8
2004-03-30,7682.7
2004-03-31,7682.6
2004-04-01,7682.6
2004-04-02,7682.725
2004-04-03,7682.85
2004-04-04,7682.975
2004-04-05,7683.1
2004-04-06,7683.25
2004-04-07,7683.4
2004-04-08,7683.4
2004-04-09,7683.4
2004-04-10,7683.36667
2004-04-11,7683.33333
2004-04-12,7683.3
2004-04-13,7683.25
2004-04-14,7683.2
2004-04-15,7683.15
2004-04-16,7683.1
2004-04-17,7683.1
2004-04-18,7683.1
2004-04-19,7683.1
2004-04-20,7683.03333
2004-04-21,7682.96667
2004-04-22,7682.9
2004-04-23,7682.9
2004-04-24,7682.9
2004-04-25,7682.9
2004-04-26,7682.9
2004-04-27,7683.1
2004-04-28,7683.16667
2004-04-29,7683.23333
2004-04-30,7683.3
2004-05-01,7683.3
2004-05-02,7683.85
2004-05-03,7684.4
2004-05-04,7685.5
2004-05-05,7686.6
2004-05-06,7687.0
2004-05-07,7687.4
2004-05-08,7687.8
2004-05-09,7688.2
2004-05-10,7688.6
2004-05-11,7688.4
2004-05-12,7688.2
2004-05-13,7688.1
2004-05-14,7688.0
2004-05-15,7687.66667
2004-05-16,7687.33333
2004-05-17,7687.0
2004-05-18,7687.6
2004-05-19,7688.2
2004-05-20,7688.15
2004-05-21,7688.1
2004-05-22,7687.9
2004-05-23,7687.7
2004-05-24,7687.5
2004-05-25,7687.3
2004-05-26,7688.05
2004-05-27,7688.8
2004-05-28,7689.7
2004-05-29,7690.6
2004-05-30,7690.7
2004-05-31,7690.8
2004-06-01,7690.8
2004-06-02,7690.9
2004-06-03,7691.0
2004-06-04,7691.1
2004-06-05,7691.1
2004-06-06,7691.1
2004-06-07,7691.1
2004-06-08,7691.0
2004-06-09,7690.9
2004-06-10,7690.8
2004-06-11,7690.7
2004-06-12,7690.7
2004-06-13,7690.7
2004-06-14,7690.7
2004-06-15,7690.675
2004-06-16,7690.65
2004-06-17,7690.625
2004-06-18,7690.6
2004-06-19,7690.56667
2004-06-20,7690.53333
2004-06-21,7690.5
2004-06-22,7690.475
2004-06-23,7690.45
2004-06-24,7690.425
2004-06-25,7690.4
2004-06-26,7690.375
2004-06-27,7690.35
2004-06-28,7690.325
2004-06-29,7690.3
2004-06-30,7690.3
2004-07-01,7690.2
2004-07-02,7690.18
2004-07-03,7690.16
2004-07-04,7690.14
2004-07-05,7690.12
2004-07-06,7690.1
2004-07-07,7689.9
2004-07-08,7689.7
2004-07-09,7689.5
2004-07-10,7689.26
2004-07-11,7689.02
2004-07-12,7688.78
2004-07-13,7688.54
2004-07-14,7688.3
2004-07-15,7688.1
2004-07-16,7687.925
2004-07-17,7687.75
2004-07-18,7687.575
2004-07-19,7687.4
2004-07-20,7687.25
2004-07-21,7687.1
2004-07-22,7686.95
2004-07-23,7686.8
2004-07-24,7686.525
2004-07-25,7686.25
2004-07-26,7685.975
2004-07-27,7685.7
2004-07-28,7685.4
2004-07-29,7685.1
2004-07-30,7684.8
2004-07-31,7684.6
2004-08-01,7684.4
2004-08-02,7684.1
2004-08-03,7683.9
2004-08-04,7683.7
2004-08-05,7683.5
2004-08-06,7683.3
2004-08-07,7683.06
2004-08-08,7682.82
2004-08-09,7682.58
2004-08-10,7682.34
2004-08-11,7682.1
2004-08-12,7681.85
2004-08-13,7681.6
2004-08-14,7681.36667
2004-08-15,7681.13333
2004-08-16,7680.9
2004-08-17,7680.7
2004-08-18,7680.48333
2004-08-19,7680.26667
2004-08-20,7680.05
2004-08-21,7679.83333
2004-08-22,7679.61667
2004-08-23,7679.4
2004-08-24,7679.2
2004-08-25,7679.0
2004-08-26,7678.78333
2004-08-27,7678.56667
2004-08-28,7678.35
2004-08-29,7678.13333
2004-08-30,7677.91667
2004-08-31,7677.7
2004-09-01,7677.5
2004-09-02,7677.3
2004-09-03,7677.05
2004-09-04,7676.8
2004-09-05,7676.73333
2004-09-06,7676.66667
2004-09-07,7676.6
2004-09-08,7676.6
2004-09-09,7676.6
2004-09-10,7676.575
2004-09-11,7676.55
2004-09-12,7676.525
2004-09-13,7676.5
2004-09-14,7676.5
2004-09-15,7676.5
2004-09-16,7676.5
2004-09-17,7676.5
2004-09-18,7676.5
2004-09-19,7676.5
2004-09-20,7676.5
2004-09-21,7676.4
2004-09-22,7676.3
2004-09-23,7676.3
2004-09-24,7676.3
2004-09-25,7676.3
2004-09-26,7676.3
2004-09-27,7676.3
2004-09-28,7676.3
2004-09-29,7676.3
2004-09-30,7676.3
2004-10-01,7676.3
2004-10-02,7676.3
2004-10-03,7676.3
2004-10-04,7676.3
2004-10-05,7676.3
2004-10-06,7676.3
2004-10-07,7676.3
2004-10-08,7676.3
2004-10-09,7676.3
2004-10-10,7676.3
2004-10-11,7676.3
2004-10-12,7676.3
2004-10-13,7676.3
2004-10-14,7676.3
2004-10-15,7676.3
2004-10-16,7676.3
2004-10-17,7676.3
2004-10-18,7676.3
2004-10-19,7676.3
2004-10-20,7676.6
2004-10-21,7676.9
2004-10-22,7677.02
2004-10-23,7677.14
2004-10-24,7677.26
2004-10-25,7677.38
2004-10-26,7677.5
2004-10-27,7677.6
2004-10-28,7677.7
2004-10-29,7677.8
2004-10-30,7677.8
2004-10-31,7677.8
2004-11-01,7677.8
2004-11-02,7678.0
2004-11-03,7678.2
2004-11-04,7678.3
2004-11-05,7678.4
2004-11-06,7678.5
2004-11-07,7678.6
2004-11-08,7678.7
2004-11-09,7678.81667
2004-11-10,7678.93333
2004-11-11,7679.05
2004-11-12,7679.16667
2004-11-13,7679.28333
2004-11-14,7679.4
2004-11-15,7679.5
2004-11-16,7679.6
2004-11-17,7679.7
2004-11-18,7679.76
2004-11-19,7679.82
2004-11-20,7679.88
2004-11-21,7679.94
2004-11-22,7680.0
2004-11-23,7680.08571
2004-11-24,7680.17143
2004-11-25,7680.25714
2004-11-26,7680.34286
2004-11-27,7680.42857
2004-11-28,7680.51429
2004-11-29,7680.6
2004-11-30,7680.6
2004-12-01,7680.6
2004-12-02,7680.68
2004-12-03,7680.76
2004-12-04,7680.84
2004-12-05,7680.92
2004-12-06,7681.0
2004-12-07,7681.06667
2004-12-08,7681.13333
2004-12-09,7681.2
2004-12-10,7681.26667
2004-12-11,7681.33333
2004-12-12,7681.4
2004-12-13,7681.46667
2004-12-14,7681.53333
2004-12-15,7681.6
2004-12-16,7681.64615
2004-12-17,7681.69231
2004-12-18,7681.73846
2004-12-19,7681.78462
2004-12-20,7681.83077
2004-12-21,7681.87692
2004-12-22,7681.92308
2004-12-23,7681.96923
2004-12-24,7682.01538
2004-12-25,7682.06154
2004-12-26,7682.10769
2004-12-27,7682.15385
2004-12-28,7682.2
2004-12-29,7682.23333
2004-12-30,7682.26667
2004-12-31,7682.3
2005-01-01,7682.3
2005-01-02,7682.35
2005-01-03,7682.4
2005-01-04,7682.475
2005-01-05,7682.55
2005-01-06,7682.625
2005-01-07,7682.7
2005-01-08,7682.775
2005-01-09,7682.85
2005-01-10,7682.925
2005-01-11,7683.0
2005-01-12,7683.0
2005-01-13,7683.0
2005-01-14,7682.93333
2005-01-15,7682.86667
2005-01-16,7682.8
2005-01-17,7682.73333
2005-01-18,7682.66667
2005-01-19,7682.6
2005-01-20,7682.58
2005-01-21,7682.56
2005-01-22,7682.54
2005-01-23,7682.52
2005-01-24,7682.5
2005-01-25,7682.5
2005-01-26,7682.5
2005-01-27,7682.5
2005-01-28,7682.5
2005-01-29,7682.5
2005-01-30,7682.5
2005-01-31,7682.5
2005-02-01,7682.5
2005-02-02,7682.5
2005-02-03,7682.5
2005-02-04,7682.5
2005-02-05,7682.5
2005-02-06,7682.5
2005-02-07,7682.5
2005-02-08,7682.5
2005-02-09,7682.5
2005-02-10,7682.5
2005-02-11,7682.5
2005-02-12,7682.5
2005-02-13,7682.5
2005-02-14,7682.5
2005-02-15,7682.5
2005-02-16,7682.5
2005-02-17,7682.5
2005-02-18,7682.5
2005-02-19,7682.5
2005-02-20,7682.5
2005-02-21,7682.5
2005-02-22,7682.5
2005-02-23,7682.5
2005-02-24,7682.5
2005-02-25,7682.5
2005-02-26,7682.5
2005-02-27,7682.5
2005-02-28,7682.5
2005-03-01,7682.5
2005-03-02,7682.55
2005-03-03,7682.56
2005-03-04,7682.57
2005-03-05,7682.58
2005-03-06,7682.59
2005-03-07,7682.6
2005-03-08,7682.6
2005-03-09,7682.6
2005-03-10,7682.6
2005-03-11,7682.6
2005-03-12,7682.6
2005-03-13,7682.6
2005-03-14,7682.6
2005-03-15,7682.6
2005-03-16,7682.65714
2005-03-17,7682.71429
2005-03-18,7682.77143
2005-03-19,7682.82857
2005-03-20,7682.88571
2005-03-21,7682.94286
2005-03-22,7683.0
2005-03-23,7683.0
2005-03-24,7683.0
2005-03-25,7683.0
2005-03-26,7683.0
2005-03-27,7683.0
2005-03-28,7683.0
2005-03-29,7683.0
2005-03-30,7683.0
2005-03-31,7683.0
2005-04-01,7683.0
2005-04-02,7683.0
2005-04-03,7683.0
2005-04-04,7683.0
2005-04-05,7683.0
2005-04-06,7683.0
2005-04-07,7683.05
2005-04-08,7683.1
2005-04-09,7683.21429
2005-04-10,7683.32857
2005-04-11,7683.44286
2005-04-12,7683.55714
2005-04-13,7683.67143
2005-04-14,7683.78571
2005-04-15,7683.9
2005-04-16,7684.06667
2005-04-17,7684.23333
2005-04-18,7684.4
2005-04-19,7684.46667
2005-04-20,7684.53333
2005-04-21,7684.6
2005-04-22,7684.4125
2005-04-23,7684.225
2005-04-24,7684.0375
2005-04-25,7683.85
2005-04-26,7683.85
2005-04-27,7683.85
2005-04-28,7683.85
2005-04-29,7683.85
2005-04-30,7683.85
2005-05-01,7683.5
2005-05-02,7683.25
2005-05-03,7683.0
2005-05-04,7682.95
2005-05-05,7682.9
2005-05-06,7682.85
2005-05-07,7683.13333
2005-05-08,7683.41667
2005-05-09,7683.7
2005-05-10,7683.7
2005-05-11,7683.7
2005-05-12,7683.5
2005-05-13,7683.3
2005-05-14,7683.55
2005-05-15,7683.8
2005-05-16,7684.05
2005-05-17,7684.3
2005-05-18,7684.7
2005-05-19,7685.1
2005-05-20,7686.4
2005-05-21,7688.7
2005-05-22,7691.0
2005-05-23,7691.2
2005-05-24,7691.125
2005-05-25,7691.05
2005-05-26,7690.975
2005-05-27,7690.9
2005-05-28,7690.825
2005-05-29,7690.75
2005-05-30,7690.675
2005-05-31,7690.6
2005-06-01,7690.6
2005-06-02,7690.45
2005-06-03,7690.3
2005-06-04,7690.5
2005-06-05,7690.7
2005-06-06,7690.9
2005-06-07,7690.65
2005-06-08,7690.4
2005-06-09,7690.36
2005-06-10,7690.32
2005-06-11,7690.28
2005-06-12,7690.24
2005-06-13,7690.2
2005-06-14,7690.56667
2005-06-15,7690.93333
2005-06-16,7691.3
2005-06-17,7691.26
2005-06-18,7691.22
2005-06-19,7691.18
2005-06-20,7691.14
2005-06-21,7691.1
2005-06-22,7691.1
2005-06-23,7691.1
2005-06-24,7690.98333
2005-06-25,7690.86667
2005-06-26,7690.75
2005-06-27,7690.63333
2005-06-28,7690.51667
2005-06-29,7690.4
2005-06-30,7690.6
2005-07-01,7690.9
2005-07-02,7690.85
2005-07-03,7690.8
2005-07-04,7690.75
2005-07-05,7690.7
2005-07-06,7690.73333
2005-07-07,7690.76667
2005-07-08,7690.8
2005-07-09,7690.73333
2005-07-10,7690.66667
2005-07-11,7690.6
2005-07-12,7690.56667
2005-07-13,7690.53333
2005-07-14,7690.5
2005-07-15,7690.45
2005-07-16,7690.4
2005-07-17,7690.35
2005-07-18,7690.3
2005-07-19,7690.3
2005-07-20,7690.3
2005-07-21,7690.3
2005-07-22,7690.3
2005-07-23,7690.3
2005-07-24,7690.3
2005-07-25,7690.3
2005-07-26,7690.3
2005-07-27,7690.3
2005-07-28,7690.3
2005-07-29,7690.2
2005-07-30,7690.1
2005-07-31,7690.0
2005-08-01,7690.0
2005-08-02,7689.875
2005-08-03,7689.75
2005-08-04,7689.625
2005-08-05,7689.5
2005-08-06,7689.3125
2005-08-07,7689.125
2005-08-08,7688.9375
2005-08-09,7688.75
2005-08-10,7688.6
2005-08-11,7688.4
2005-08-12,7688.2
2005-08-13,7688.0
2005-08-14,7687.8
2005-08-15,7687.6
2005-08-16,7687.4
2005-08-17,7687.2
2005-08-18,7687.0
2005-08-19,7686.78
2005-08-20,7686.56
2005-08-21,7686.34
2005-08-22,7686.12
2005-08-23,7685.9
2005-08-24,7685.66667
2005-08-25,7685.43333
2005-08-26,7685.2
2005-08-27,7684.96667
2005-08-28,7684.73333
2005-08-29,7684.5
2005-08-30,7684.3
2005-08-31,7684.1
2005-09-01,7683.9
2005-09-02,7683.68
2005-09-03,7683.46
2005-09-04,7683.24
2005-09-05,7683.02
2005-09-06,7682.8
2005-09-07,7682.6
2005-09-08,7682.4
2005-09-09,7682.375
2005-09-10,7682.35
2005-09-11,7682.325
2005-09-12,7682.3
2005-09-13,7682.3
2005-09-14,7682.3
2005-09-15,7682.3
2005-09-16,7682.3
2005-09-17,7682.28333
2005-09-18,7682.26667
2005-09-19,7682.25
2005-09-20,7682.2375
2005-09-21,7682.225
2005-09-22,7682.2125
2005-09-23,7682.2
2005-09-24,7682.18333
2005-09-25,7682.16667
2005-09-26,7682.15
2005-09-27,7682.15
2005-09-28,7682.15
2005-09-29,7682.15
2005-09-30,7682.15
2005-10-01,7682.15
2005-10-02,7682.125
2005-10-03,7682.1
2005-10-04,7682.0875
2005-10-05,7682.075
2005-10-06,7682.0625
2005-10-07,7682.05
2005-10-08,7682.03333
2005-10-09,7682.01667
2005-10-10,7682.0
2005-10-11,7681.9875
2005-10-12,7681.975
2005-10-13,7681.9625
2005-10-14,7681.95
2005-10-15,7681.9375
2005-10-16,7681.925
2005-10-17,7681.9125
2005-10-18,7681.9
2005-10-19,7681.9
2005-10-20,7681.89167
2005-10-21,7681.88333
2005-10-22,7681.875
2005-10-23,7681.86667
2005-10-24,7681.85833
2005-10-25,7681.85
2005-10-26,7681.85
2005-10-27,7681.85
2005-10-28,7681.85
2005-10-29,7681.85
2005-10-30,7681.85
2005-10-31,7681.85
2005-11-01,7681.85
2005-11-02,7681.85
2005-11-03,7681.85
2005-11-04,7681.85
2005-11-05,7681.85
2005-11-06,7681.85
2005-11-07,7681.85
2005-11-08,7681.85
2005-11-09,7681.85
2005-11-10,7681.85
2005-11-11,7681.8875
2005-11-12,7681.925
2005-11-13,7681.9625
2005-11-14,7682.0
2005-11-15,7682.0
2005-11-16,7682.0
2005-11-17,7682.0
2005-11-18,7682.0
2005-11-19,7682.0
2005-11-20,7682.0
2005-11-21,7682.0
2005-11-22,7682.0
2005-11-23,7682.0
2005-11-24,7682.0
2005-11-25,7682.0
2005-11-26,7682.0
2005-11-27,7682.0
2005-11-28,7682.0
2005-11-29,7682.0
2005-11-30,7682.0
2005-12-01,7682.0
2005-12-02,7682.01429
2005-12-03,7682.02857
2005-12-04,7682.04286
2005-12-05,7682.05714
2005-12-06,7682.07143
2005-12-07,7682.08571
2005-12-08,7682.1
2005-12-09,7682.1
2005-12-10,7682.1
2005-12-11,7682.1
2005-12-12,7682.1
2005-12-13,7682.1
2005-12-14,7682.1
2005-12-15,7682.1
2005-12-16,7682.1
2005-12-17,7682.1
2005-12-18,7682.1
2005-12-19,7682.1
2005-12-20,7682.1
2005-12-21,7682.10714
2005-12-22,7682.11429
2005-12-23,7682.12143
2005-12-24,7682.12857
2005-12-25,7682.13571
2005-12-26,7682.14286
2005-12-27,7682.15
2005-12-28,7682.15
2005-12-29,7682.15
2005-12-30,7682.15
2005-12-31,7682.15
2006-01-01,7682.15
2006-01-02,7682.2125
2006-01-03,7682.275
2006-01-04,7682.3375
2006-01-05,7682.4
2006-01-06,7682.4
2006-01-07,7682.4
2006-01-08,7682.4
2006-01-09,7682.4
2006-01-10,7682.4
2006-01-11,7682.4
2006-01-12,7682.4
2006-01-13,7682.4
2006-01-14,7682.4
2006-01-15,7682.4
2006-01-16,7682.4
2006-01-17,7682.4
2006-01-18,7682.4
2006-01-19,7682.4
2006-01-20,7682.4
2006-01-21,7682.4
2006-01-22,7682.4
2006-01-23,7682.4
2006-01-24,7682.4
2006-01-25,7682.4
2006-01-26,7682.4
2006-01-27,7682.4
2006-01-28,7682.4
2006-01-29,7682.4
2006-01-30,7682.4
2006-01-31,7682.4
2006-02-01,7682.4
2006-02-02,7682.4
2006-02-03,7682.4
2006-02-04,7682.4
2006-02-05,7682.4
2006-02-06,7682.4
2006-02-07,7682.4
2006-02-08,7682.4
2006-02-09,7682.4
2006-02-10,7682.4
2006-02-11,7682.4
2006-02-12,7682.4
2006-02-13,7682.4
2006-02-14,7682.4
2006-02-15,7682.4
2006-02-16,7682.4
2006-02-17,7682.4
2006-02-18,7682.4
2006-02-19,7682.4
2006-02-20,7682.4
2006-02-21,7682.4
2006-02-22,7682.4
2006-02-23,7682.4
2006-02-24,7682.4
2006-02-25,7682.4
2006-02-26,7682.4
2006-02-27,7682.4
2006-02-28,7682.4
2006-03-01,7682.4
2006-03-02,7682.4
2006-03-03,7682.4
2006-03-04,7682.4
2006-03-05,7682.4
2006-03-06,7682.4
2006-03-07,7682.4
2006-03-08,7682.4
2006-03-09,7682.4
2006-03-10,7682.4
2006-03-11,7682.4
2006-03-12,7682.4
2006-03-13,7682.4
2006-03-14,7682.4
2006-03-15,7682.425
2006-03-16,7682.45
2006-03-17,7682.475
2006-03-18,7682.5
2006-03-19,7682.525
2006-03-20,7682.55
2006-03-21,7682.575
2006-03-22,7682.6
2006-03-23,7682.6
2006-03-24,7682.6
2006-03-25,7682.6
2006-03-26,7682.6
2006-03-27,7682.6
2006-03-28,7682.6
2006-03-29,7682.6
2006-03-30,7682.6
2006-03-31,7682.6
2006-04-01,7682.6
2006-04-02,7682.66667
2006-04-03,7682.73333
2006-04-04,7682.8
2006-04-05,7682.92222
2006-04-06,7683.04444
2006-04-07,7683.16667
2006-04-08,7683.28889
2006-04-09,7683.41111
2006-04-10,7683.53333
2006-04-11,7683.65556
2006-04-12,7683.77778
2006-04-13,7683.9
2006-04-14,7684.05714
2006-04-15,7684.21429
2006-04-16,7684.37143
2006-04-17,7684.52857
2006-04-18,7684.68571
2006-04-19,7684.84286
2006-04-20,7685.0
2006-04-21,7685.08
2006-04-22,7685.16
2006-04-23,7685.24
2006-04-24,7685.32
2006-04-25,7685.4
2006-04-26,7685.52
2006-04-27,7685.64
2006-04-28,7685.76
2006-04-29,7685.88
2006-04-30,7686.0
2006-05-01,7686.1
2006-05-02,7686.1
2006-05-03,7686.1
2006-05-04,7686.075
2006-05-05,7686.05
2006-05-06,7685.43333
2006-05-07,7684.81667
2006-05-08,7684.2
2006-05-09,7683.75
2006-05-10,7683.3
2006-05-11,7683.96667
2006-05-12,7684.63333
2006-05-13,7685.3
2006-05-14,7685.96667
2006-05-15,7686.63333
2006-05-16,7687.3
2006-05-17,7688.95
2006-05-18,7690.6
2006-05-19,7691.0
2006-05-20,7691.0
2006-05-21,7691.0
2006-05-22,7691.0
2006-05-23,7690.85
2006-05-24,7690.7
2006-05-25,7690.75
2006-05-26,7690.8
2006-05-27,7690.525
2006-05-28,7690.25
2006-05-29,7689.975
2006-05-30,7689.7
2006-05-31,7689.8
2006-06-01,7690.4
2006-06-02,7690.7
2006-06-03,7690.76667
2006-06-04,7690.83333
2006-06-05,7690.9
2006-06-06,7690.85